Temperature
31 32 33 32 32 33 32 32 32 32 32 32 32 32 31 30 29 28 27 26 25 24 23 23 22 21 21 20 20 19 19 19 18 18 18 17 17 17 16 16 16 16 16 16
29 31 32 32 33 33 33 33 33 33 32 33 32 32 30 29 28 28 26 25 25 24 23 22 22 21 21 20 20 19 19 18 18 18 17 17 17 16 16 15 15 15 15 15
28 30 31 30 32 32 33 33 33 32 32 32 32 31 30 29 28 26 25 25 24 23 23 22 22 21 20 20 19 19 18 18 18 17 17 16 16 16 16 15 15 15 15 15
28 28 28 30 33 33 33 33 33 33 33 32 31 30 29 28 27 26 25 24 23 23 22 22 21 21 20 20 19 19 18 18 17 17 17 16 16 16 15 15 15 15 15 15
27 27 28 30 32 32 31 31 32 32 31 31 30 29 28 27 27 26 25 24 23 23 22 21 21 20 20 19 19 18 18 18 17 17 17 16 16 16 15 15 14 14 15 14
26 26 27 29 31 32 31 29 30 30 30 30 29 29 28 26 26 25 24 23 23 22 22 21 20 20 19 19 19 18 18 17 17 17 16 16 16 16 15 15 14 14 14 14
26 26 27 29 30 31 29 27 28 29 29 28 28 27 26 25 25 24 23 23 22 22 21 21 20 20 19 19 18 18 18 17 17 17 16 16 16 15 15 14 14 14 14 14
25 26 26 28 29 27 26 26 27 27 27 27 26 26 25 24 24 23 22 22 21 21 21 20 20 19 19 18 18 18 17 17 17 16 16 15 15 15 14 14 14 13 13 13
25 25 24 25 25 25 25 25 26 26 26 26 25 25 24 23 23 22 21 21 21 20 20 19 19 19 19 18 18 18 17 17 16 16 15 15 15 15 14 14 13 13 13 13
24 24 24 23 23 23 24 24 24 25 25 25 24 24 23 22 22 21 21 20 20 19 19 19 18 18 18 18 18 17 17 16 16 15 15 15 15 14 14 14 13 13 13 12
23 23 23 23 22 22 22 23 23 24 24 24 23 23 22 21 21 20 20 19 19 19 19 19 18 18 18 18 17 17 17 16 16 15 15 15 15 14 14 14 13 13 13 13
22 22 23 22 21 21 21 22 22 23 23 22 22 22 21 21 20 20 19 19 19 18 18 18 18 17 17 17 17 17 16 16 15 15 15 15 14 14 14 13 13 13 13 13
22 21 21 21 21 21 21 21 22 21 21 21 21 21 20 20 20 19 19 19 18 18 18 17 17 17 17 17 17 17 16 15 15 14 14 14 14 14 14 13 13 13 12 12
20 20 20 20 20 20 20 20 20 20 20 20 20 20 20 19 19 19 19 18 18 18 17 17 17 17 17 17 16 16 16 15 15 14 14 14 14 14 13 13 13 12 12 12
19 19 19 19 19 19 19 19 19 19 19 19 19 19 19 18 18 18 18 18 17 17 17 16 16 16 16 16 16 16 15 14 14 14 14 14 13 13 13 13 12 12 12 12
18 19 18 18 18 18 18 19 19 18 18 19 18 18 18 18 18 17 17 17 17 17 17 16 16 16 16 16 15 15 14 14 14 14 14 14 13 13 13 12 12 12 12 12
18 18 18 18 18 18 18 18 18 18 17 18 17 17 17 17 17 17 16 16 16 16 16 16 16 15 15 15 15 15 14 14 14 14 14 14 13 13 13 13 12 12 12 12
17 17 17 17 17 17 17 17 17 17 17 17 17 17 16 16 16 16 16 16 16 16 15 15 15 15 15 15 14 14 14 14 14 14 14 14 13 13 13 13 12 12 12 12
17 17 17 17 17 17 17 16 16 16 16 16 16 16 16 16 16 15 15 15 15 15 15 15 15 15 15 14 14 14 14 14 14 14 14 14 13 13 13 13 13 12 12 12
16 16 16 16 16 16 16 16 16 16 15 15 15 15 15 15 15 15 15 15 15 15 15 15 15 14 14 14 14 14 14 14 14 14 14 14 13 13 13 13 13 12 12 12
15 15 15 15 15 15 15 15 15 15 15 15 15 15 15 15 14 14 14 14 14 14 14 14 14 14 14 14 14 14 14 14 14 14 14 13 13 13 13 13 13 12 12 12
14 14 14 14 14 14 14 14 14 14 14 14 14 14 14 14 14 14 14 14 14 14 14 14 14 14 14 14 14 14 14 14 14 14 13 13 13 13 13 12 12 12 12 12
13 13 13 13 13 13 14 13 13 13 14 14 14 14 14 14 14 14 14 14 14 14 13 13 14 13 13 13 13 13 13 13 13 13 13 13 13 12 12 12 12 12 12 11
12 12 13 13 13 13 13 13 13 13 13 13 13 13 13 13 13 13 13 13 13 13 13 13 13 13 13 13 13 13 13 13 13 13 13 13 12 12 12 12 12 12 11 11
12 12 12 12 12 12 12 12 12 12 12 13 13 13 13 13 13 13 13 13 13 13 13 13 13 13 13 13 12 13 13 13 13 13 12 12 12 12 12 12 11 11 11 11
11 11 11 11 11 12 12 12 12 12 12 12 12 12 13 12 12 12 12 12 12 12 12 12 12 12 12 12 12 12 12 12 12 12 12 12 12 12 11 11 11 11 11 11
11 11 11 11 11 11 11 11 11 12 12 12 12 12 12 12 12 12 12 12 12 12 11 11 11 12 12 12 12 12 12 12 11 11 11 11 11 11 11 11 11 11 10 10
Wind_Speed
18 17 14 15 17 18 17 16 14 10 9 7 8 9 10 10 11 11 11 12 12 13 12 12 11 10 10 10 9 8 8 8 7 6 6 6 6 5 5 5 6 6 6 6
18 19 17 16 17 17 18 16 16 13 7 4 8 8 9 10 11 11 11 11 12 13 13 12 12 11 10 10 9 9 8 8 7 7 6 6 6 6 6 6 6 6 7 7
16 18 18 19 16 16 15 16 15 13 7 5 8 9 10 10 10 11 12 11 11 12 12 11 11 11 10 10 10 9 8 8 8 7 7 6 7 7 7 6 6 7 7 7
14 15 19 15 14 14 14 14 12 9 4 5 6 8 9 9 9 9 11 12 11 12 13 12 11 11 11 11 10 10 9 8 8 8 8 7 7 7 6 5 6 6 6 6
13 16 16 13 11 11 10 7 4 4 2 3 6 7 7 7 7 8 9 9 10 12 13 13 12 12 11 11 10 10 9 8 8 8 8 7 7 6 5 5 6 6 6 6
12 14 15 11 10 8 8 7 1 1 0 1 4 4 3 6 7 7 8 9 9 11 12 13 12 12 12 11 10 10 9 8 8 7 7 7 7 6 5 5 5 6 6 5
16 15 10 7 7 7 9 3 1 1 2 2 3 3 4 7 7 7 9 10 10 11 11 11 12 11 11 10 10 9 9 9 8 7 7 7 7 6 6 5 5 5 6 5
15 15 9 4 2 2 3 5 4 3 3 4 5 6 7 8 9 9 10 11 11 10 10 10 11 11 10 9 9 9 9 9 9 8 7 7 7 6 5 6 6 5 5 5
5 4 4 7 6 6 6 5 4 3 3 3 4 6 7 7 9 9 9 10 10 11 11 10 10 10 10 9 10 10 9 9 8 7 6 7 7 6 5 5 5 5 5 5
3 4 4 6 7 7 6 5 4 3 2 2 5 6 7 7 8 8 8 9 9 10 11 10 9 9 8 9 9 10 10 8 7 7 7 6 5 5 4 3 3 3 3 4
2 2 3 4 5 6 6 5 4 4 4 4 5 7 7 7 8 8 7 8 8 8 9 10 10 9 9 9 10 10 9 8 8 7 6 5 4 3 2 3 1 1 2 3
2 1 1 4 4 5 4 4 4 4 4 4 5 6 6 6 6 7 7 7 7 8 9 9 10 9 9 9 10 10 9 9 8 7 7 6 6 5 10 7 7 9 8 6
3 3 3 4 4 4 3 3 4 4 3 3 4 4 4 6 6 6 6 7 7 7 8 8 9 9 9 9 9 9 8 8 7 7 7 7 7 6 5 4 7 9 9 9
4 3 2 2 2 3 4 5 4 3 2 3 3 4 4 5 5 5 5 5 6 7 8 8 8 8 9 9 9 8 8 8 7 6 7 7 7 7 6 6 5 3 4 6
1 0 1 2 2 2 2 2 2 1 1 2 3 3 4 4 4 5 4 5 6 7 8 8 8 8 8 9 9 8 8 7 6 6 6 6 7 7 6 7 6 6 6 4
2 1 1 1 1 1 2 1 1 2 2 1 2 2 3 3 3 4 4 5 6 7 7 7 7 8 8 9 8 7 6 7 7 6 7 7 7 7 7 7 6 6 7 7
3 4 3 2 1 0 1 2 1 1 1 0 2 2 3 4 3 3 3 3 3 4 6 7 7 8 8 8 8 7 7 7 8 7 7 7 7 7 6 6 6 6 6 7
4 5 4 3 2 2 1 2 2 2 2 1 1 1 2 2 3 3 2 3 3 3 5 6 7 8 7 7 6 6 7 8 7 7 6 6 6 5 6 6 7 6 6 7
4 4 3 3 3 2 2 1 1 2 3 2 0 2 2 2 2 2 2 3 4 5 5 5 8 8 7 7 6 5 6 7 7 6 5 6 6 6 6 6 6 7 7 7
3 4 3 3 3 3 2 2 2 2 2 2 1 0 1 1 1 1 2 1 2 2 3 6 8 7 7 7 7 6 7 7 7 7 6 6 7 6 6 7 6 6 6 6
3 4 4 3 3 2 1 1 2 2 2 2 2 2 2 2 1 1 2 2 1 2 3 6 6 6 6 6 6 6 6 7 7 7 7 6 6 6 6 6 6 6 6 6
3 4 3 3 3 2 1 1 2 2 3 2 3 2 2 2 3 2 2 2 1 2 3 5 5 5 5 6 6 7 7 7 6 6 6 5 5 5 6 6 5 6 5 5
3 3 3 2 2 1 1 1 2 2 3 3 2 2 2 2 3 3 2 2 3 3 3 3 4 6 6 5 5 6 6 6 6 5 5 6 5 5 5 5 5 5 5 4
1 2 2 1 2 2 2 2 3 3 3 4 4 3 3 3 3 3 1 1 3 4 2 3 6 6 6 5 5 5 5 5 5 5 5 5 5 5 4 4 4 4 4 5
1 1 2 2 3 2 2 3 4 4 5 4 4 3 3 3 2 1 1 3 4 4 3 4 6 6 5 4 4 4 3 2 2 3 3 4 4 5 4 4 4 4 4 5
1 2 1 2 2 2 3 3 4 3 2 2 2 2 1 1 2 1 1 3 4 3 2 3 4 5 4 3 3 3 2 3 2 2 2 3 3 4 4 4 4 3 3 3
2 2 2 2 2 2 2 3 3 2 2 1 2 1 1 1 2 2 3 2 3 3 3 3 3 3 2 2 2 2 2 2 2 2 2 3 3 4 4 3 3 3 3 3
Wind_Direction
260 260 245 227 223 228 236 245 250 249 230 188 159 151 148 148 149 152 153 157 156 153 151 150 148 149 150 148 144 142 141 137 131 125 120 110 99 90 81 82 84 75 73 69
254 257 251 246 234 230 231 237 244 247 244 164 147 145 141 148 157 158 160 163 159 156 153 154 153 154 151 149 145 142 142 139 132 129 123 116 112 104 92 83 80 76 73 67
247 248 252 245 240 233 232 234 241 243 231 187 157 149 152 153 161 161 164 168 164 160 156 157 157 153 154 149 145 143 142 141 140 137 129 124 115 103 97 95 89 81 78 78
247 247 245 247 249 247 240 235 235 239 209 170 146 140 139 149 160 164 166 170 164 162 158 158 156 153 151 149 148 144 144 142 140 135 129 122 116 111 107 103 96 89 84 86
242 242 242 244 243 243 238 235 253 246 181 143 134 138 142 143 154 160 162 159 160 161 158 157 158 155 151 150 148 146 146 141 137 134 131 130 124 120 118 113 109 104 97 92
238 243 241 241 243 237 238 215 231 254 82 140 134 171 154 135 137 144 145 146 151 152 148 152 153 151 152 153 151 152 148 142 136 137 140 138 134 131 127 124 121 114 105 98
238 242 245 272 260 232 227 208 42 54 66 90 112 98 117 128 126 133 136 140 144 146 144 146 147 149 154 153 153 150 143 140 137 140 140 138 135 135 140 136 123 115 114 108
230 238 233 323 246 224 64 53 53 50 61 92 102 104 115 122 126 134 139 141 144 141 139 141 146 150 153 152 148 143 142 143 142 146 150 144 141 142 143 140 139 141 139 132
219 212 67 40 58 65 66 59 54 42 50 107 117 121 125 126 128 133 136 139 142 142 141 144 148 151 154 148 145 146 147 147 147 149 142 145 151 152 156 166 168 167 164 152
166 133 92 63 59 53 41 43 45 53 48 112 123 126 131 135 135 136 136 136 138 145 148 149 150 151 148 143 144 149 149 148 150 151 147 146 153 162 165 178 178 168 159 148
175 137 101 64 46 44 31 25 38 46 67 81 102 117 125 131 135 138 138 139 143 149 152 153 151 150 151 148 149 153 154 155 157 157 153 137 118 71 100 67 63 139 138 134
190 161 122 103 62 47 31 22 37 52 62 74 94 109 121 132 134 134 136 139 145 151 155 155 154 153 155 156 159 159 162 167 169 166 160 154 139 103 52 65 77 80 77 91
58 70 86 96 74 51 40 29 50 67 79 85 95 109 121 131 134 135 138 143 151 154 152 153 155 156 159 162 165 168 173 177 176 173 171 169 163 157 142 91 68 72 83 95
49 57 92 89 78 54 44 31 32 54 75 94 106 119 124 126 135 140 144 149 153 151 154 158 159 161 162 164 168 175 180 181 178 177 178 177 177 175 169 167 159 136 100 112
19 16 110 71 73 65 49 42 23 38 58 89 100 118 125 131 141 144 143 147 154 159 162 162 162 161 162 166 172 181 186 183 183 179 181 181 179 178 179 175 167 157 150 148
282 240 179 166 148 54 4 13 26 24 10 96 115 120 128 130 133 137 145 156 171 173 164 163 165 165 167 171 176 184 187 180 181 183 185 183 182 182 177 173 173 169 170 168
250 251 231 226 237 254 325 347 11 15 342 23 112 128 143 144 140 138 148 168 179 170 163 167 169 166 173 179 184 187 184 180 185 194 194 187 188 186 179 180 183 181 177 170
243 259 249 236 252 268 305 340 357 1 326 315 122 146 145 146 155 153 161 154 150 155 167 171 166 167 177 187 192 192 185 181 187 196 193 188 189 186 182 184 189 183 171 173
243 240 229 219 232 244 244 253 278 334 338 329 141 150 143 137 139 156 165 170 177 186 180 169 164 173 184 191 198 200 194 188 191 196 190 175 183 191 190 190 189 185 181 177
248 240 225 223 235 231 232 238 247 248 284 290 271 180 153 149 153 169 171 208 214 198 168 164 172 185 190 189 198 208 200 192 194 194 195 188 189 191 190 191 189 184 180 179
252 248 233 232 244 230 231 265 268 269 263 252 235 231 212 198 197 192 203 236 199 163 167 166 181 188 191 182 195 213 206 197 198 199 199 194 188 190 190 188 186 184 185 184
272 265 247 237 222 206 179 263 271 269 261 240 237 232 213 215 223 215 201 229 214 163 187 186 194 186 177 180 202 218 213 207 202 198 195 189 186 189 187 186 190 192 188 185
270 259 242 227 212 213 214 246 270 279 277 266 255 243 238 251 254 240 232 214 200 182 199 192 175 159 164 195 215 221 219 216 206 196 189 181 185 187 188 191 194 190 179 176
276 285 269 229 218 233 244 260 275 284 281 270 257 249 243 243 244 243 230 144 145 162 181 146 147 156 185 210 213 214 218 217 209 200 191 185 182 179 179 185 191 183 172 174
250 277 275 254 243 239 235 243 249 253 257 258 256 247 246 239 224 199 94 117 134 151 169 155 166 184 206 219 213 210 207 210 196 187 181 176 175 172 171 176 179 175 168 170
234 257 266 264 271 273 269 269 267 259 254 252 252 241 207 151 147 158 150 145 146 154 168 161 178 201 205 196 192 177 164 161 161 179 174 171 171 161 159 161 155 149 146 144
243 246 236 245 249 249 251 262 269 275 284 276 271 275 204 160 167 159 157 155 157 170 179 184 183 182 178 175 167 156 150 139 135 137 130 128 126 124 121 124 132 134 141 141
Height
1472 1465 1464 1467 1471 1472 1476 1478 1485 1482 1480 1477 1478 1481 1487 1492 1497 1501 1506 1509 1513 1517 1521 1525 1528 1531 1534 1536 1538 1540 1542 1543 1544 1545 1546 1546 1547 1547 1547 1547 1547 1547 1547 1547
1478 1468 1464 1467 1465 1467 1470 1472 1474 1476 1477 1472 1477 1481 1487 1492 1496 1500 1505 1509 1513 1516 1520 1523 1527 1530 1533 1535 1537 1539 1541 1543 1544 1545 1545 1546 1546 1547 1547 1548 1548 1547 1547 1547
1485 1473 1471 1476 1465 1465 1467 1466 1469 1475 1474 1472 1476 1481 1487 1491 1496 1499 1504 1508 1512 1515 1518 1522 1525 1528 1531 1534 1536 1539 1540 1542 1543 1544 1545 1546 1547 1547 1547 1548 1548 1548 1548 1547
1484 1483 1494 1472 1456 1456 1461 1463 1463 1466 1468 1472 1477 1481 1486 1490 1494 1499 1502 1506 1510 1513 1517 1520 1524 1527 1530 1533 1535 1537 1539 1541 1542 1544 1545 1545 1546 1546 1547 1548 1548 1548 1548 1548
1485 1487 1481 1467 1458 1458 1464 1467 1465 1467 1470 1473 1476 1482 1486 1491 1494 1497 1501 1504 1507 1511 1515 1519 1522 1526 1529 1532 1534 1536 1538 1540 1541 1543 1544 1545 1546 1546 1547 1548 1548 1548 1548 1548
1484 1490 1489 1471 1458 1457 1462 1473 1470 1471 1473 1474 1477 1483 1488 1491 1494 1497 1500 1504 1506 1510 1513 1517 1521 1524 1527 1530 1533 1535 1537 1539 1540 1542 1543 1545 1545 1546 1547 1548 1548 1549 1549 1549
1484 1485 1476 1463 1458 1460 1477 1480 1473 1473 1475 1477 1480 1484 1490 1491 1494 1497 1500 1503 1506 1510 1513 1516 1519 1523 1526 1529 1532 1535 1537 1538 1540 1541 1543 1544 1545 1546 1547 1548 1548 1549 1549 1549
1480 1484 1482 1466 1463 1469 1476 1475 1475 1476 1478 1480 1482 1486 1490 1492 1495 1498 1501 1504 1506 1509 1512 1515 1519 1522 1525 1528 1531 1533 1536 1537 1539 1540 1542 1543 1544 1545 1546 1547 1548 1549 1549 1549
1472 1478 1475 1473 1473 1474 1476 1477 1477 1479 1480 1482 1484 1487 1490 1493 1495 1498 1501 1504 1506 1509 1512 1515 1518 1521 1524 1527 1529 1531 1534 1535 1537 1539 1540 1542 1543 1544 1546 1547 1548 1549 1549 1549
1471 1474 1474 1476 1477 1477 1478 1479 1479 1480 1482 1483 1485 1488 1491 1494 1496 1499 1502 1504 1506 1509 1511 1514 1517 1520 1523 1525 1528 1530 1532 1534 1536 1538 1539 1540 1542 1543 1545 1546 1547 1548 1549 1549
1472 1474 1475 1478 1480 1480 1480 1481 1481 1482 1483 1485 1487 1489 1491 1494 1497 1500 1502 1504 1506 1508 1511 1513 1516 1519 1521 1524 1526 1528 1530 1532 1534 1536 1537 1539 1540 1542 1543 1544 1546 1547 1547 1548
1474 1476 1477 1481 1481 1482 1483 1483 1483 1484 1486 1487 1488 1490 1492 1495 1497 1499 1502 1504 1506 1508 1510 1512 1515 1517 1520 1522 1525 1527 1529 1531 1533 1534 1536 1537 1538 1540 1541 1543 1544 1545 1546 1546
1474 1476 1478 1481 1483 1484 1485 1485 1485 1486 1488 1489 1490 1491 1493 1495 1497 1499 1501 1503 1505 1507 1509 1512 1513 1516 1518 1520 1523 1525 1527 1529 1531 1533 1534 1535 1536 1538 1539 1541 1542 1543 1544 1545
1477 1479 1481 1482 1484 1484 1485 1485 1487 1488 1489 1489 1490 1492 1493 1495 1496 1498 1500 1502 1504 1506 1509 1511 1512 1514 1516 1519 1521 1523 1525 1528 1530 1531 1532 1533 1534 1536 1537 1538 1540 1540 1542 1543
1479 1481 1482 1484 1485 1486 1486 1487 1488 1488 1489 1490 1491 1491 1493 1494 1496 1497 1499 1501 1503 1506 1508 1509 1511 1513 1515 1517 1519 1521 1523 1525 1527 1529 1530 1532 1533 1534 1535 1536 1538 1538 1539 1541
1481 1482 1483 1484 1485 1486 1486 1487 1488 1489 1489 1490 1490 1491 1492 1494 1495 1497 1498 1500 1502 1504 1505 1507 1509 1511 1513 1515 1517 1519 1521 1523 1525 1527 1529 1530 1531 1532 1534 1535 1536 1537 1537 1539
1482 1482 1483 1484 1484 1486 1487 1487 1488 1488 1489 1489 1490 1491 1492 1493 1494 1496 1497 1499 1501 1502 1503 1505 1507 1508 1510 1513 1515 1517 1519 1521 1523 1525 1527 1528 1529 1531 1532 1533 1534 1535 1536 1537
1481 1482 1483 1483 1484 1485 1486 1487 1487 1488 1489 1488 1489 1490 1491 1492 1493 1494 1496 1497 1499 1500 1501 1503 1504 1506 1508 1510 1512 1514 1516 1518 1520 1522 1524 1525 1527 1528 1529 1530 1532 1533 1533 1535
1479 1480 1481 1482 1483 1484 1485 1486 1487 1487 1487 1488 1489 1490 1489 1491 1492 1493 1494 1496 1497 1498 1499 1500 1502 1504 1505 1507 1510 1512 1514 1516 1517 1519 1521 1522 1524 1525 1526 1528 1529 1530 1531 1532
1477 1479 1480 1481 1482 1482 1483 1484 1485 1486 1487 1487 1488 1489 1489 1490 1491 1492 1493 1494 1495 1496 1497 1498 1499 1501 1503 1505 1507 1510 1512 1513 1515 1516 1518 1519 1521 1522 1523 1525 1526 1527 1528 1529
1476 1477 1478 1479 1480 1481 1482 1482 1483 1484 1485 1486 1486 1487 1488 1488 1489 1490 1491 1493 1494 1494 1495 1496 1498 1499 1501 1503 1505 1507 1509 1511 1512 1514 1515 1516 1518 1519 1520 1522 1523 1524 1525 1527
1475 1476 1477 1478 1479 1479 1480 1481 1482 1483 1484 1484 1485 1485 1486 1487 1488 1489 1489 1490 1491 1492 1493 1494 1495 1497 1499 1500 1502 1504 1506 1508 1509 1511 1512 1513 1515 1516 1518 1519 1520 1521 1522 1524
1474 1474 1475 1476 1477 1478 1479 1480 1480 1481 1481 1482 1483 1483 1484 1485 1486 1487 1487 1488 1489 1490 1491 1492 1492 1494 1496 1498 1499 1501 1503 1505 1506 1507 1509 1510 1511 1513 1514 1516 1517 1519 1520 1521
1472 1473 1474 1475 1475 1476 1477 1478 1478 1479 1479 1480 1480 1481 1482 1483 1483 1485 1485 1486 1486 1487 1488 1489 1490 1492 1493 1495 1496 1498 1500 1502 1503 1505 1506 1507 1508 1510 1511 1513 1514 1516 1517 1518
1471 1472 1473 1473 1474 1474 1475 1475 1476 1476 1477 1477 1478 1478 1479 1480 1480 1481 1483 1483 1484 1485 1486 1487 1488 1490 1491 1493 1494 1496 1498 1499 1500 1501 1502 1504 1505 1507 1508 1510 1511 1513 1514 1515
1470 1471 1471 1472 1472 1473 1473 1473 1473 1473 1474 1474 1475 1476 1477 1478 1478 1480 1481 1481 1482 1483 1484 1485 1486 1487 1489 1490 1492 1493 1494 1496 1498 1499 1500 1501 1503 1504 1506 1508 1509 1511 1512 1513
1469 1469 1469 1470 1470 1471 1471 1471 1471 1471 1472 1473 1474 1475 1475 1476 1477 1478 1479 1480 1481 1482 1483 1484 1485 1486 1487 1488 1489 1491 1492 1494 1495 1497 1498 1499 1501 1502 1504 1505 1507 1508 1510 1511